contact:dominique.lefevre@mio.osupytheas.fr, maurice.libes@osupytheas.fr, didier.mallarino@osupytheas.fr
Project:EMSO http://www.emso-fr.org/EMSO-France
Depth: 2436.0 m
Title:EMSO Ligure Ouest : Data MII capteur AQUADOPP
Date,Latitude,Longitude,X_East,Y_North,Z_Up,Amplitude_X,Amplitude_Y,Amplitude_Z,Batterie,SoundSpeed,Heading,Pitch,Roll,Pressure,TIS,Speed,Direction
, degrees North, degrees East, m.s-1, m.s-1,m.s-1, 1, 1, 1, Volt, m.s-1, degree, degree, degree, dbar, degree_C, m.s-1, degree
2019-10-13T00:04:03,42.805,6.029,-0.021,0.024,-0.05,101.0,105.0,98.0,13.4,1505.1,327.0,-0.7,1.8,2470.425,13.27,0.031,318.8
2019-10-13T00:07:04,42.805,6.029,-0.016,0.01,-0.036,101.0,105.0,98.0,13.3,1505.2,324.9,-0.8,1.9,2470.366,13.29,0.018,302.0
2019-10-13T00:10:05,42.805,6.029,0.005,0.017,0.016,101.0,105.0,99.0,13.4,1505.3,325.8,-0.7,1.8,2470.254,13.31,0.017,16.4
2019-10-13T00:13:06,42.805,6.029,0.0,0.01,-0.017,100.0,106.0,97.0,13.3,1505.3,326.0,-0.8,1.8,2470.118,13.31,0.01,0.0
2019-10-13T00:16:07,42.805,6.029,-0.017,-0.01,-0.031,101.0,105.0,98.0,13.3,1505.3,327.8,-0.7,1.8,2470.117,13.32,0.019,239.5
2019-10-13T00:19:08,42.805,6.029,-0.012,0.015,-0.004,104.0,105.0,97.0,13.4,1505.3,323.1,-0.7,1.9,2470.011,13.33,0.019,321.3
2019-10-13T00:22:09,42.805,6.029,-0.001,0.007,-0.044,101.0,106.0,98.0,13.4,1505.3,323.6,-0.7,1.8,2469.932,13.33,0.007,351.9
2019-10-13T00:25:10,42.805,6.029,-0.015,0.013,-0.004,102.0,104.0,98.0,13.3,1505.3,325.7,-0.7,1.8,2469.921,13.33,0.019,310.9
2019-10-13T00:28:11,42.805,6.029,-0.028,-0.005,-0.06,101.0,106.0,97.0,13.4,1505.3,325.8,-0.7,1.8,2469.907,13.33,0.028,259.9
2019-10-13T00:31:12,42.805,6.029,0.001,0.032,-0.04,101.0,110.0,98.0,13.4,1505.4,326.5,-0.7,1.8,2469.884,13.34,0.032,1.8
2019-10-13T00:34:13,42.805,6.029,-0.016,0.011,-0.026,101.0,108.0,99.0,13.4,1505.4,327.4,-0.7,1.8,2469.843,13.34,0.019,304.5
2019-10-13T00:37:14,42.805,6.029,-0.008,0.003,-0.043,102.0,105.0,99.0,13.4,1505.4,326.6,-0.7,1.8,2469.838,13.34,0.008,290.6
2019-10-13T00:40:15,42.805,6.029,-0.024,0.007,-0.006,101.0,106.0,99.0,13.4,1505.4,323.7,-0.7,1.8,2469.846,13.34,0.025,286.3
2019-10-13T00:43:16,42.805,6.029,0.012,0.011,-0.019,100.0,105.0,99.0,13.4,1505.4,325.6,-0.7,1.8,2469.858,13.34,0.016,47.5
2019-10-13T00:46:17,42.805,6.029,-0.038,-0.014,-0.07,100.0,106.0,98.0,13.4,1505.4,326.5,-0.7,1.8,2469.88,13.34,0.04,249.8
2019-10-13T00:49:18,42.805,6.029,-0.007,0.006,-0.036,101.0,106.0,98.0,13.4,1505.4,327.6,-0.7,1.9,2469.86,13.34,0.009,310.6
2019-10-13T00:52:19,42.805,6.029,-0.015,0.03,-0.016,100.0,107.0,99.0,13.4,1505.4,327.9,-0.7,1.8,2469.852,13.34,0.033,333.4
2019-10-13T00:55:20,42.805,6.029,-0.047,0.016,-0.028,100.0,105.0,98.0,13.4,1505.4,327.0,-0.7,1.8,2469.863,13.34,0.049,288.8
2019-10-13T00:58:21,42.805,6.029,-0.026,0.015,-0.034,102.0,105.0,97.0,13.3,1505.4,327.6,-0.7,1.8,2469.886,13.34,0.03,300.0
2019-10-13T01:01:22,42.805,6.029,0.012,0.007,-0.016,101.0,106.0,98.0,13.4,1505.4,327.9,-0.8,1.9,2469.874,13.34,0.013,59.7
2019-10-13T01:04:23,42.805,6.029,-0.001,0.024,-0.01,99.0,106.0,100.0,13.4,1505.4,324.3,-0.7,1.9,2469.863,13.34,0.024,357.6
2019-10-13T01:07:24,42.805,6.029,0.003,-0.005,-0.043,101.0,106.0,98.0,13.4,1505.4,324.0,-0.7,1.8,2469.866,13.34,0.005,149.0
2019-10-13T01:10:25,42.805,6.029,-0.036,-0.011,-0.068,100.0,105.0,98.0,13.4,1505.3,324.7,-0.7,1.8,2469.862,13.33,0.037,253.0
2019-10-13T01:13:26,42.805,6.029,-0.022,0.003,-0.013,101.0,105.0,98.0,13.4,1505.3,325.9,-0.7,1.8,2469.914,13.33,0.022,277.8
2019-10-13T01:16:27,42.805,6.029,-0.013,0.015,-0.033,101.0,104.0,100.0,13.3,1505.3,326.8,-0.7,1.8,2469.863,13.33,0.019,319.1
2019-10-13T01:19:28,42.805,6.029,-0.033,0.02,-0.007,100.0,104.0,100.0,13.3,1505.4,326.9,-0.7,1.8,2469.849,13.34,0.038,301.2
2019-10-13T01:22:29,42.805,6.029,-0.032,0.005,-0.014,100.0,106.0,98.0,13.4,1505.3,326.6,-0.7,1.8,2469.923,13.33,0.032,278.9
2019-10-13T01:25:30,42.805,6.029,-0.012,0.034,-0.007,101.0,108.0,97.0,13.4,1505.4,327.6,-0.7,1.8,2469.872,13.34,0.036,340.6
2019-10-13T01:28:31,42.805,6.029,-0.006,0.011,-0.036,103.0,104.0,99.0,13.4,1505.3,327.6,-0.7,1.8,2469.89,13.33,0.012,331.4
2019-10-13T01:31:32,42.805,6.029,-0.011,0.018,-0.03,101.0,106.0,99.0,13.4,1505.4,323.2,-0.7,1.8,2469.895,13.34,0.021,328.6
2019-10-13T01:34:33,42.805,6.029,-0.061,0.037,-0.064,101.0,104.0,98.0,13.4,1505.3,327.0,-0.7,1.9,2469.853,13.33,0.071,301.2
2019-10-13T01:37:34,42.805,6.029,-0.059,0.007,-0.072,99.0,105.0,98.0,13.4,1505.3,326.3,-0.7,1.9,2469.878,13.33,0.059,276.8
2019-10-13T01:40:35,42.805,6.029,-0.024,0.026,-0.051,100.0,105.0,98.0,13.4,1505.4,325.4,-0.7,1.8,2469.893,13.34,0.035,317.3
2019-10-13T01:43:36,42.805,6.029,-0.02,0.002,-0.034,102.0,103.0,98.0,13.4,1505.4,325.5,-0.7,1.8,2469.854,13.34,0.02,275.7
2019-10-13T01:46:37,42.805,6.029,-0.013,0.002,-0.034,101.0,105.0,98.0,13.4,1505.3,325.2,-0.7,1.7,2469.897,13.33,0.013,278.7
2019-10-13T01:49:38,42.805,6.029,-0.022,0.004,-0.024,100.0,105.0,98.0,13.4,1505.4,324.0,-0.7,1.8,2469.902,13.34,0.022,280.3
2019-10-13T01:52:39,42.805,6.029,-0.043,0.016,-0.041,100.0,105.0,98.0,13.3,1505.4,323.5,-0.7,1.8,2469.893,13.34,0.045,290.4
2019-10-13T01:55:40,42.805,6.029,0.001,0.006,-0.019,101.0,105.0,98.0,13.4,1505.4,327.0,-0.7,1.8,2469.9,13.34,0.006,9.5
2019-10-13T01:58:41,42.805,6.029,-0.055,0.027,-0.049,101.0,106.0,97.0,13.4,1505.4,326.0,-0.8,1.8,2469.931,13.34,0.061,296.1
2019-10-13T02:01:42,42.805,6.029,-0.022,0.008,-0.058,104.0,105.0,98.0,13.4,1505.4,324.5,-0.7,1.8,2469.908,13.34,0.023,290.0
2019-10-13T02:04:43,42.805,6.029,-0.013,0.02,-0.008,100.0,106.0,98.0,13.4,1505.4,325.5,-0.7,1.8,2469.919,13.34,0.023,327.0
2019-10-13T02:07:44,42.805,6.029,-0.029,-0.007,-0.049,101.0,106.0,97.0,13.4,1505.4,328.2,-0.7,1.8,2469.959,13.34,0.029,256.4
2019-10-13T02:10:45,42.805,6.029,-0.014,0.002,-0.046,100.0,106.0,98.0,13.4,1505.4,326.3,-0.7,1.9,2469.906,13.34,0.014,278.1
2019-10-13T02:13:46,42.805,6.029,-0.055,0.022,-0.069,101.0,107.0,97.0,13.4,1505.4,325.4,-0.7,1.8,2469.906,13.34,0.059,291.8
2019-10-13T02:16:47,42.805,6.029,-0.017,0.01,-0.047,101.0,107.0,98.0,13.4,1505.4,327.4,-0.7,1.8,2469.883,13.34,0.019,300.5
2019-10-13T02:19:48,42.805,6.029,-0.034,0.02,-0.064,100.0,107.0,98.0,13.4,1505.3,324.5,-0.7,1.8,2469.906,13.33,0.039,300.5
2019-10-13T02:22:49,42.805,6.029,-0.016,0.014,-0.039,99.0,107.0,98.0,13.4,1505.3,326.4,-0.7,1.8,2469.899,13.33,0.021,311.2
